Regional Weather Roundup
Issued by NWS

Home | Current Version | Previous Version | Graphics & Text | Print | Product List | Glossary On
Versions: 1 2 3 4 5 6 7 8 9 10 11 12 13 14 15 16 17 18 19 20 21 22 23 24 25 26 27 28 29 30 31 32 33 34 35 36 37 38 39 40 41 42 43 44 45 46 47 48 49 50
000
ASUS43 KDMX 300507
RWRIA

WEATHER ROUNDUP FOR IOWA
NATIONAL WEATHER SERVICE DES MOINES IA
1200 AM CDT MON MAR 30 2015

NOTE: "FAIR" INDICATES FEW OR NO CLOUDS BELOW 12,000 FEET WITH NO
SIGNIFICANT WEATHER AND/OR OBSTRUCTIONS TO VISIBILITY.

* - THESE STATIONS ARE NOT NWS STATIONS...THUS NOT UNDER NWS
QUALITY CONTROL.  THEY ALSO DO NOT REPORT WEATHER SUCH
AS PRECIPITATION OR FOG.

IAZ001>003-012>014-020>022-031>034-043>046-300600-
   NORTHWEST IOWA

CITY           SKY/WX    TMP DP  RH WIND       PRES   REMARKS
CARROLL *      CLEAR     32  23  69 W7        30.09F WCI  26
CHEROKEE *     CLEAR     32  25  74 CALM      30.08S
DENISON *      CLEAR     34  23  64 SE6       30.08F WCI  29
LE MARS *      CLEAR     32  23  69 CALM      30.08F
ORANGE CITY *  CLEAR     41  21  45 S3        30.06F
SHELDON *      CLEAR     28  21  74 CALM      30.05S
SIOUX CITY     CLEAR     34  21  59 CALM      30.09S
SPENCER        CLEAR     30  23  75 SW3       30.05F
STORM LAKE *   CLEAR     45  21  39 W5        30.08F
$$

IAZ055>058-069>071-079>083-090>094-300600-
   SOUTHWEST IOWA

CITY           SKY/WX    TMP DP  RH WIND       PRES   REMARKS
ATLANTIC *     CLEAR     36  25  64 CALM      30.12S
AUDUBON *      CLEAR     30  23  74 CALM      30.12S
CLARINDA *     CLEAR     32  27  80 S3        30.15S
COUNCIL BLFS * CLEAR     48  23  37 SW5       30.13S
CRESTON *      CLEAR     41  25  52 NW6       30.12S
HARLAN  *      CLEAR     36  25  64 CALM      30.15S
LAMONI         CLEAR     41  28  60 W9        30.12R
RED OAK *      CLEAR     37  27  65 CALM      30.13S
SHENANDOAH *   CLEAR     39  27  60 CALM      30.15S
$$

IAZ047>049-059>061-072>074-084-300600-
   CENTRAL IOWA

CITY           SKY/WX    TMP DP  RH WIND       PRES   REMARKS
AMES           CLEAR     38  23  55 NW7       30.08S WCI  33
ANKENY *       CLEAR     41  27  56 W8        30.09S
CHARITON *     CLEAR     43  27  52 W9        30.10S
DES MOINES     CLEAR     45  23  42 W6        30.11R
GRINNELL*      CLEAR     37  27  65 NW5       30.08S WCI  34
KNOXVILLE *    CLEAR     45  23  42 W7        30.09R
MARSHALLTOWN   CLEAR     37  27  67 NW7       30.06R WCI  32
PELLA *        CLEAR     44  29  56 NW7       30.10R
PERRY *          N/A     34  25  69 W9        30.09S WCI  26
$$

IAZ004>006-015-016-023>025-035-036-300600-
   NORTH CENTRAL IOWA

CITY           SKY/WX    TMP DP  RH WIND       PRES   REMARKS
ALGONA *       CLEAR     34  27  75 W8        30.05S WCI  27
CLARION *      CLEAR     36  28  75 W5        30.06S WCI  32
ESTHERVILLE    CLEAR     31  23  72 W8        30.03F WCI  23
FORT DODGE *   CLEAR     36  23  60 CALM      30.08S
MASON CITY     CLEAR     36  27  69 W13       30.04S WCI  27
FOREST CITY *  CLEAR     34  27  75 SW5       30.04R WCI  30
IOWA FALLS *     N/A     34  28  80 W6        30.07S WCI  29
$$

IAZ007>011-017>019-026>030-037>042-050>054-066-300600-
   NORTHEAST IOWA

CITY           SKY/WX    TMP DP  RH WIND       PRES   REMARKS
CEDAR RAPIDS   CLEAR     33  28  81 W10       30.04R WCI  25
CHARLES CITY * CLEAR     37  32  81 W9        30.02S WCI  31
CLINTON *      CLEAR     34  27  75 W9        30.03S WCI  26
DECORAH *      CLEAR     39  30  70 W6        29.98R WCI  35
DUBUQUE        CLEAR     42  28  57 NW14      29.98R
MONTICELLO *   CLEAR     41  32  70 NW9       30.02R
OELWEIN *      CLEAR     36  30  80 W10       30.02R WCI  28
WATERLOO       CLEAR     41  30  65 W7        30.03R
$$

IAZ064-065-067-068-078-300600-
   EAST CENTRAL IOWA

CITY           SKY/WX    TMP DP  RH WIND       PRES   REMARKS
DAVENPORT      CLEAR     32  26  78 W9        30.03R WCI  24
IOWA CITY      CLEAR     44  30  57 NW6       30.07R
MT. PLEASANT * CLEAR     46  27  46 NW10      30.07R
MUSCATINE *    CLEAR     41  28  60 W8        30.05S
QUAD CITIES    CLEAR     45  30  55 NW12      30.02R
$$

IAZ062-063-075>077-085>089-095>099-300600-
   SOUTHEAST IOWA

CITY           SKY/WX    TMP DP  RH WIND       PRES   REMARKS
BURLINGTON     CLEAR     45  28  51 NW5       30.06R
FAIRFIELD *    CLEAR     41  27  56 W9        30.08R
FORT MADISON * CLEAR     45  28  53 NW9       30.08R
KEOKUK *       CLEAR     46  28  49 W8        30.07R
OSKALOOSA *      N/A     36  25  64 W10       30.09R WCI  28
CENTERVILLE *  CLEAR     37  28  70 W9        30.11R WCI  31
OTTUMWA        CLEAR     42  24  49 W7        30.08R
WASHINGTON *   CLEAR     41  28  60 NW9       30.07R
$$

ABBREVIATIONS USED IN REMARKS
   TC - TEMPERATURES IN CELSIUS
  WCI - WIND CHILL INDEX
   HX - HEAT INDEX
  VSB - VISIBILITY
$$



USA.gov is the U.S. government's official web portal to all federal, state and local government web resources and services.